Find OneWeb SL0205

NORAD ID: 48226 Int'l Des: 2021-031 Owner: ONEWEBN Country: UK Constellation: oneweb operational
LEOCIRCULARPOLARONEWEB_TYPE

リアルタイム位置

3D地球を読み込み中...

OneWeb SL0205について

説明を読み込み中...

次回通過

Passes for default location (London). Set your location on the main map for personalized predictions.

高度履歴

Loading altitude history...

軌道要素

1 48226U 21031S 26125.43567082 -.00000161 00000-0 -46798-3 0 9997
2 48226 87.8932 298.2245 0001579 98.0755 262.0554 13.14503527242653
Epoch: May 5, 2026 • Age: 13 hours

現在のステータス

高度 1217.1 km
速度 7.25 km/s
衛星直下点 71.16°N, 86.35°E
打ち上げ日 Apr 25, 2021
運用期間 5 years
タイプ internet

技術仕様

分類 Payload
質量 148.00 kg
乾燥質量 140.00 kg
総質量 148.00 kg
長さ 1.30 m
直径 1.00 m
スパン 5.00 m
形状 Trapezoid+2 pan
製造者 ONEWUS
バスタイプ ARROW
フェーズステータス In Orbit
所有者/国 ONEWEBN/UK

Most Searched